FW1633 Weather Reports


time (UTC)temp
F
wind
direction
speed
knots
gust
knots
rain 1hr
in
rain 24hr
in
rain mn
in
humidity
%
barometer
mb
20260506002511 66 292 0.0 0.0 0.00 0.00 0.00 72 1010.2
20260506002010 65 193 0.0 0.0 0.00 0.00 0.00 72 1010.2
20260506001528 65 249 0.0 0.0 0.00 0.00 0.00 72 1010.2
20260506001008 65 237 0.0 0.0 0.00 0.00 0.00 72 1010.2
20260506000510 65 236 0.0 0.0 0.00 0.00 0.00 72 1010.2
20260506000036 66 215 0.0 0.0 0.00 0.00 0.00 72 1010.0
20260505235511 66 217 0.0 0.0 0.00 0.00 0.00 72 1010.0
20260505235006 66 224 0.0 0.0 0.00 0.00 0.00 72 1009.9
20260505234520 65 232 0.0 0.0 0.00 0.00 0.00 72 1009.9
20260505234006 65 226 0.0 0.0 0.00 0.00 0.00 72 1009.9
20260505233511 65 136 0.0 0.0 0.00 0.00 0.00 72 1009.8
20260505233023 65 251 0.0 0.0 0.00 0.00 0.00 72 1009.6
20260505232509 66 237 0.0 0.0 0.00 0.00 0.00 71 1009.6
20260505232011 66 233 0.0 0.0 0.00 0.00 0.00 71 1009.6
20260505231525 66 291 0.0 0.0 0.00 0.00 0.00 71 1009.5
20260505231008 66 57 0.0 0.0 0.00 0.00 0.00 70 1009.4
20260505230509 67 219 0.0 0.0 0.00 0.00 0.00 70 1009.3
20260505230033 67 250 0.0 0.0 0.00 0.00 0.00 70 1009.1
20260505225511 67 98 0.0 0.0 0.00 0.00 0.00 70 1009.1
20260505225012 67 139 0.0 0.0 0.00 0.00 0.00 70 1008.9
20260505224536 67 151 0.0 0.0 0.00 0.00 0.00 70 1008.8
20260505224013 68 247 0.0 0.0 0.00 0.00 0.00 69 1008.8
20260505223509 68 231 0.0 0.0 0.00 0.00 0.00 68 1008.9
20260505223036 69 218 0.0 0.0 0.00 0.00 0.00 67 1009.0
20260505222507 69 152 0.0 0.0 0.00 0.00 0.00 66 1009.0
20260505222010 70 136 0.0 0.0 0.00 0.00 0.00 66 1008.9
20260505221525 71 190 0.0 0.0 0.00 0.00 0.00 65 1008.7
20260505221006 71 214 0.0 0.0 0.00 0.00 0.00 65 1008.6
20260505220507 71 211 0.0 0.0 0.00 0.00 0.00 65 1008.7
20260505220037 71 199 0.0 0.0 0.00 0.00 0.00 65 1008.7
20260505215515 71 231 0.0 0.0 0.00 0.00 0.00 65 1008.7
20260505215004 71 188 0.0 0.0 0.00 0.00 0.00 65 1008.6
20260505214503 71 188 0.0 0.0 0.00 0.00 0.00 65 1008.7
20260505214006 70 208 0.0 0.0 0.00 0.00 0.00 65 1008.5
20260505213502 70 210 0.0 0.0 0.00 0.00 0.00 65 1008.5
20260505213003 70 105 0.0 0.0 0.00 0.00 0.00 65 1008.4
20260505212503 70 214 0.0 0.0 0.00 0.00 0.00 65 1008.4
20260505212002 71 117 0.0 0.0 0.00 0.00 0.00 64 1008.5
20260505211504 71 112 0.0 0.0 0.00 0.00 0.00 64 1008.5
20260505211004 71 164 0.0 0.0 0.00 0.00 0.00 63 1008.4
20260505210503 71 240 0.0 0.0 0.00 0.00 0.00 63 1008.3
20260505210009 72 292 0.0 0.0 0.00 0.00 0.00 63 1008.3
20260505205507 72 186 0.0 0.0 0.00 0.00 0.00 63 1008.3
20260505205009 72 189 0.0 0.0 0.00 0.00 0.00 63 1008.3
20260505204505 71 267 0.0 0.0 0.00 0.00 0.00 64 1008.4
20260505204002 71 174 0.0 0.0 0.00 0.00 0.00 64 1008.5
20260505203502 72 220 0.0 0.0 0.00 0.00 0.00 63 1008.5
20260505203003 72 131 0.0 0.0 0.00 0.00 0.00 62 1008.3
20260505202503 73 241 0.0 0.0 0.00 0.00 0.00 61 1008.4
20260505202003 73 164 0.0 0.0 0.00 0.00 0.00 60 1008.4
20260505201504 74 239 0.0 0.0 0.00 0.00 0.00 60 1008.4
20260505201003 74 236 0.0 0.0 0.00 0.00 0.00 60 1008.6
20260505200506 74 181 0.0 0.0 0.00 0.00 0.00 60 1008.7
20260505200009 74 185 0.0 0.0 0.00 0.00 0.00 59 1008.7
20260505195503 75 83 0.0 0.0 0.00 0.00 0.00 59 1008.6
20260505195003 76 152 0.0 0.0 0.00 0.00 0.00 59 1008.8
20260505194510 75 72 0.0 0.0 0.00 0.00 0.00 59 1008.8
20260505194005 75 212 0.0 0.0 0.00 0.00 0.00 60 1009.1
20260505193503 75 238 0.0 0.0 0.00 0.00 0.00 60 1009.2
20260505193035 75 132 0.0 0.0 0.00 0.00 0.00 59 1009.2
20260505192502 74 154 0.0 0.0 0.00 0.00 0.00 61 1009.2
20260505192002 73 240 0.0 0.0 0.00 0.00 0.00 61 1009.4
20260505191503 73 204 0.0 0.0 0.00 0.00 0.00 61 1009.4
20260505191004 73 83 0.0 0.0 0.00 0.00 0.00 61 1009.6
20260505190503 73 207 0.0 0.0 0.00 0.00 0.00 61 1009.7
20260505190013 73 162 0.0 0.0 0.00 0.00 0.00 62 1009.8
20260505185506 73 226 0.0 0.0 0.00 0.00 0.00 62 1009.9
20260505185004 72 205 0.0 0.0 0.00 0.00 0.00 63 1010.1
20260505184506 72 221 0.0 0.0 0.00 0.00 0.00 63 1010.0
20260505184004 73 206 0.0 0.0 0.00 0.00 0.00 61 1010.2
20260505183503 72 229 0.0 0.0 0.00 0.00 0.00 62 1010.2
20260505183022 73 163 0.0 0.0 0.00 0.00 0.00 61 1010.3
20260505182503 73 200 0.0 0.0 0.00 0.00 0.00 62 1010.3
20260505182007 73 109 0.0 0.0 0.00 0.00 0.00 62 1010.3
20260505181521 73 138 0.0 0.0 0.00 0.00 0.00 61 1010.3
20260505181014 74 109 0.0 0.0 0.00 0.00 0.00 62 1010.3
20260505180501 74 172 0.0 0.0 0.00 0.00 0.00 62 1010.5
20260505180003 74 149 0.0 0.0 0.00 0.00 0.00 61 1010.5
20260505175500 74 113 0.0 0.0 0.00 0.00 0.00 61 1010.5
20260505175001 73 123 0.0 0.0 0.00 0.00 0.00 62 1010.5
20260505174505 73 153 0.0 0.0 0.00 0.00 0.00 62 1010.6
20260505174004 73 91 0.0 0.0 0.00 0.00 0.00 62 1010.6
20260505173504 73 140 0.0 0.0 0.00 0.00 0.00 62 1010.7
20260505173008 73 117 0.0 0.0 0.00 0.00 0.00 61 1010.7
20260505172503 74 120 0.0 0.0 0.00 0.00 0.00 60 1010.7
20260505172003 74 213 0.0 0.0 0.00 0.00 0.00 59 1010.7
20260505171526 74 138 0.0 0.0 0.00 0.00 0.00 58 1010.6
20260505171003 75 181 0.0 0.0 0.00 0.00 0.00 56 1010.7
20260505170505 77 132 0.0 0.0 0.00 0.00 0.00 56 1010.8
20260505170021 78 228 0.0 0.0 0.00 0.00 0.00 55 1010.8
20260505165504 77 99 0.0 0.0 0.00 0.00 0.00 54 1010.8
20260505165003 77 164 0.0 0.0 0.00 0.00 0.00 56 1010.9
20260505164504 77 150 0.0 0.0 0.00 0.00 0.00 55 1010.9
20260505164000 77 141 0.0 0.0 0.00 0.00 0.00 55 1011.0
20260505163504 77 74 0.0 0.0 0.00 0.00 0.00 56 1011.0
20260505163009 76 217 0.0 0.0 0.00 0.00 0.00 56 1011.1
20260505162502 77 190 0.0 0.0 0.00 0.00 0.00 55 1011.1
20260505162004 77 274 0.0 0.0 0.00 0.00 0.00 56 1011.2
20260505161512 77 101 0.0 0.0 0.00 0.00 0.00 55 1011.2
20260505161004 76 231 0.0 0.0 0.00 0.00 0.00 55 1011.3
20260505160504 76 233 0.0 0.0 0.00 0.00 0.00 54 1011.4
20260505153008 74 17 0.0 0.0 0.00 0.00 0.00 59 1011.7
20260505152503 74 216 0.0 0.0 0.00 0.00 0.00 59 1011.8
20260505152006 74 230 0.0 0.0 0.00 0.00 0.00 60 1011.6
20260505151508 73 238 0.0 0.0 0.00 0.00 0.00 61 1011.6
20260505151007 73 169 0.0 0.0 0.00 0.00 0.00 61 1011.7
20260505150504 73 145 0.0 0.0 0.00 0.00 0.00 60 1011.9
20260505140509 72 165 0.0 0.0 0.00 0.00 0.00 60 1012.0
20260505125009 67 234 0.0 0.0 0.00 0.00 0.00 68 1011.6
20260505124517 67 166 0.0 0.0 0.00 0.00 0.00 69 1011.7
20260505124009 67 196 0.0 0.0 0.00 0.00 0.00 70 1011.7
20260505123501 67 191 0.0 0.0 0.00 0.00 0.00 70 1011.8
20260505123001 66 231 0.0 0.0 0.00 0.00 0.00 71 1011.6
20260505122500 66 216 0.0 0.0 0.00 0.00 0.00 71 1011.6
20260505122001 66 233 0.0 0.0 0.00 0.00 0.00 71 1011.6
20260505121501 66 125 0.0 0.0 0.00 0.00 0.00 71 1011.7
20260505121001 65 221 0.0 0.0 0.00 0.00 0.00 73 1011.7
20260505120504 65 176 0.0 0.0 0.00 0.00 0.00 73 1011.7
20260505120005 65 217 0.0 0.0 0.00 0.00 0.00 73 1011.6
20260505115502 64 232 0.0 0.0 0.00 0.00 0.00 76 1011.5
20260505115005 63 141 0.0 0.0 0.00 0.00 0.00 77 1011.7
20260505114509 62 228 0.0 0.0 0.00 0.00 0.00 78 1011.9
20260505114006 61 209 0.0 0.0 0.00 0.00 0.00 80 1011.8
20260505113504 60 208 0.0 0.0 0.00 0.00 0.00 80 1011.8
20260505113018 60 231 0.0 0.0 0.00 0.00 0.00 81 1011.8
20260505112504 60 259 0.0 0.0 0.00 0.00 0.00 81 1011.8
20260505112001 60 217 0.0 0.0 0.00 0.00 0.00 81 1011.8
20260505111509 60 220 0.0 0.0 0.00 0.00 0.00 82 1011.9
20260505111002 60 207 0.0 0.0 0.00 0.00 0.00 81 1011.9
20260505110502 60 224 0.0 0.0 0.00 0.00 0.00 82 1011.8
20260505102008 55 196 0.0 0.0 0.00 0.00 0.00 90 1011.8
20260505101518 54 226 0.0 0.0 0.00 0.00 0.00 90 1011.5
20260505101005 54 233 0.0 0.0 0.00 0.00 0.00 91 1011.3
20260505100506 54 233 0.0 0.0 0.00 0.00 0.00 91 1011.2
20260505100002 54 230 0.0 0.0 0.00 0.00 0.00 91 1011.1
20260505095502 53 155 0.0 0.0 0.00 0.00 0.00 91 1011.0
20260505095001 53 150 0.0 0.0 0.00 0.00 0.00 91 1010.9
20260505094004 53 208 0.0 0.0 0.00 0.00 0.00 91 1010.8
20260505093506 53 224 0.0 0.0 0.00 0.00 0.00 91 1010.9
20260505093010 53 85 0.0 0.0 0.00 0.00 0.00 91 1011.0
20260505092504 53 90 0.0 0.0 0.00 0.00 0.00 91 1010.9
20260505092005 53 157 0.0 0.0 0.00 0.00 0.00 91 1010.9
20260505091522 53 146 0.0 0.0 0.00 0.00 0.00 91 1010.8
20260505091006 54 144 0.0 0.0 0.00 0.00 0.00 91 1010.9
20260505090505 54 151 0.0 0.0 0.00 0.00 0.00 90 1010.9
20260505090040 54 217 0.0 0.0 0.00 0.00 0.00 90 1010.9
20260505085505 54 145 0.0 0.0 0.00 0.00 0.00 90 1010.9
20260505085005 54 161 0.0 0.0 0.00 0.00 0.00 90 1011.0
20260505084525 54 147 0.0 0.0 0.00 0.00 0.00 90 1011.0
20260505084002 54 236 0.0 0.0 0.00 0.00 0.00 90 1011.0
20260505083502 54 68 0.0 0.0 0.00 0.00 0.00 90 1011.0
20260505083011 54 229 0.0 0.0 0.00 0.00 0.00 91 1010.9
20260505082502 54 214 0.0 0.0 0.00 0.00 0.00 91 1010.8
20260505082004 54 219 0.0 0.0 0.00 0.00 0.00 91 1010.9
20260505081512 54 193 0.0 0.0 0.00 0.00 0.00 91 1010.9
20260505081005 54 191 0.0 0.0 0.00 0.00 0.00 91 1010.9
20260505080505 54 155 0.0 0.0 0.00 0.00 0.00 91 1010.9
20260505080040 54 231 0.0 0.0 0.00 0.00 0.00 91 1010.9
20260505075506 54 210 0.0 0.0 0.00 0.00 0.00 91 1010.8
20260505075006 54 218 0.0 0.0 0.00 0.00 0.00 91 1010.8
20260505074521 54 228 0.0 0.0 0.00 0.00 0.00 91 1010.9
20260505074006 54 235 0.0 0.0 0.00 0.00 0.00 91 1010.8
20260505073507 54 141 0.0 0.0 0.00 0.00 0.00 91 1010.8
20260505073032 54 212 0.0 0.0 0.00 0.00 0.00 91 1010.8
20260505072507 54 239 0.0 0.0 0.00 0.00 0.00 90 1010.8
20260505072003 54 246 0.0 0.0 0.00 0.00 0.00 90 1010.7
20260505071510 54 234 0.0 0.0 0.00 0.00 0.00 90 1010.8
20260505071002 54 223 0.0 0.0 0.00 0.00 0.00 90 1010.8
20260505070505 54 163 0.0 0.0 0.00 0.00 0.00 90 1010.8
20260505070021 54 134 0.0 0.0 0.00 0.00 0.00 90 1010.7
20260505065504 55 153 0.0 0.0 0.00 0.00 0.00 90 1010.9
20260505065004 55 216 0.0 0.0 0.00 0.00 0.00 89 1010.8
20260505064521 55 223 0.0 0.0 0.00 0.00 0.00 89 1010.8
20260505064012 55 250 0.0 0.0 0.00 0.00 0.00 89 1010.8
20260505063511 55 232 0.0 0.0 0.00 0.00 0.00 89 1010.9
20260505063023 55 219 0.0 0.0 0.00 0.00 0.00 88 1010.9
20260505062507 55 202 0.0 0.0 0.00 0.00 0.00 88 1010.9
20260505062009 55 210 0.0 0.0 0.00 0.00 0.00 88 1010.9
20260505061526 55 166 0.0 0.0 0.00 0.00 0.00 88 1010.9
20260505061012 55 216 0.0 0.0 0.00 0.00 0.00 87 1010.9
20260505060504 55 222 0.0 0.0 0.00 0.00 0.00 87 1010.9
20260505060016 55 223 0.0 0.0 0.00 0.00 0.00 86 1010.9
20260505055504 56 255 0.0 0.0 0.00 0.00 0.00 86 1011.0
20260505055006 56 245 0.0 0.0 0.00 0.00 0.00 85 1011.1
20260505054521 56 216 0.0 0.0 0.00 0.00 0.00 84 1011.0
20260505054007 56 264 0.0 0.0 0.00 0.00 0.00 84 1011.0
20260505053507 56 197 0.0 0.0 0.00 0.00 0.00 83 1011.1
20260505053022 56 234 0.0 0.0 0.00 0.00 0.00 82 1011.1
20260505052510 57 161 0.0 0.0 0.00 0.00 0.00 82 1011.2
20260505052006 57 190 0.0 0.0 0.00 0.00 0.00 81 1011.2
20260505051525 57 216 0.0 0.0 0.00 0.00 0.00 81 1011.2
20260505051007 57 228 0.0 0.0 0.00 0.00 0.00 80 1011.2
20260505050511 57 217 0.0 0.0 0.00 0.00 0.00 79 1011.2
20260505041540 59 224 0.0 0.0 0.00 0.00 0.00 74 1011.4
20260505041007 59 221 0.0 0.0 0.00 0.00 0.00 74 1011.5
20260505040512 59 224 0.0 0.0 0.00 0.00 0.00 74 1011.5
20260505040027 59 212 0.0 0.0 0.00 0.00 0.00 74 1011.6
20260505035507 59 219 0.0 0.0 0.00 0.00 0.00 74 1011.6
20260505035015 59 243 0.0 0.0 0.00 0.00 0.00 74 1011.6
20260505034527 59 233 0.0 0.0 0.00 0.00 0.00 74 1011.6
20260505034013 59 224 0.0 0.0 0.00 0.00 0.00 73 1011.6
20260505033507 59 231 0.0 0.0 0.00 0.00 0.00 73 1011.5
20260505033026 59 164 0.0 0.0 0.00 0.00 0.00 73 1011.5
20260505032507 59 166 0.0 0.0 0.00 0.00 0.00 73 1011.5
20260505032007 59 218 0.0 0.0 0.00 0.00 0.00 73 1011.6
20260505031521 59 226 0.0 0.0 0.00 0.00 0.00 73 1011.6
20260505031010 59 153 0.0 0.0 0.00 0.00 0.00 73 1011.6
20260505030507 59 221 0.0 0.0 0.00 0.00 0.00 74 1011.6
20260505030033 59 215 0.0 0.0 0.00 0.00 0.00 74 1011.7
20260505025507 59 210 0.0 0.0 0.00 0.00 0.00 74 1011.7
20260505025004 59 212 0.0 0.0 0.00 0.00 0.00 74 1011.7
20260505024509 59 256 0.0 0.0 0.00 0.00 0.00 73 1011.7
20260505024003 59 221 0.0 0.0 0.00 0.00 0.00 73 1011.7
20260505023503 59 215 0.0 0.0 0.00 0.00 0.00 72 1011.7
20260505023012 59 246 0.0 0.0 0.00 0.00 0.00 72 1011.8
20260505022504 60 248 0.0 0.0 0.00 0.00 0.00 72 1011.8
20260505022006 60 209 0.0 0.0 0.00 0.00 0.00 72 1011.8
20260505021516 60 221 0.0 0.0 0.00 0.00 0.00 72 1011.8
20260505021007 60 145 0.0 0.0 0.00 0.00 0.00 72 1011.8
20260505020506 60 222 0.0 0.0 0.00 0.00 0.00 72 1011.7
20260505020021 60 229 0.0 0.0 0.00 0.00 0.00 72 1011.7
20260505015512 60 224 0.0 0.0 0.00 0.00 0.00 73 1011.7
20260505015005 60 180 0.0 0.0 0.00 0.00 0.00 73 1011.7
20260505014508 60 216 0.0 0.0 0.00 0.00 0.00 73 1011.7
20260505014003 60 216 0.0 0.0 0.00 0.00 0.00 72 1011.7
20260505013502 60 210 0.0 0.0 0.00 0.00 0.00 72 1011.7
20260505013010 60 184 0.0 0.0 0.00 0.00 0.00 71 1011.7
20260505012507 61 165 0.0 0.0 0.00 0.00 0.00 71 1011.6
20260505012004 61 218 0.0 0.0 0.00 0.00 0.00 71 1011.5
20260505011521 61 137 0.0 0.0 0.00 0.00 0.00 71 1011.4
20260505011004 61 212 0.0 0.0 0.00 0.00 0.00 71 1011.4
20260505010505 61 211 0.0 0.0 0.00 0.00 0.00 72 1011.3
20260505010019 61 265 0.0 0.0 0.00 0.00 0.00 72 1011.1
20260505005505 60 208 0.0 0.0 0.00 0.00 0.00 73 1011.1
20260505005009 61 139 0.0 0.0 0.00 0.00 0.00 73 1011.0
20260505004533 60 157 0.0 0.0 0.00 0.00 0.00 73 1011.0
20260505004006 60 176 0.0 0.0 0.00 0.00 0.00 73 1010.9
20260505003505 60 228 0.0 0.0 0.00 0.00 0.00 73 1011.0
20260505003007 60 254 0.0 0.0 0.00 0.00 0.00 73 1010.9